Dati Storici

Data ora Umidita' aria (%) Temperatura aria (°C) Rad globale (W/m²) Gonioanemometro (°) Tacoanemometro (m/s) Pioggia (mm)
09-06-2020 18:50 86.7 % 20.087 -63.308 0.547 0 0
09-06-2020 18:40 85.8 % 20.046 -67.669 -0.009 0 0
09-06-2020 18:30 83.5 % 20.109 -67.68 0.462 0 0
09-06-2020 18:20 84 % 20.099 -63.003 2.283 0 0
09-06-2020 18:10 84.2 % 20.39 -68.516 -0.01 0 0
09-06-2020 18:00 84.4 % 20.311 -67.432 1.37 0 0
09-06-2020 17:50 83.9 % 20.153 -65.851 -0.01 0 0
09-06-2020 17:40 83.7 % 20.186 -75.158 1.109 0 0
09-06-2020 17:30 83.8 % 20.43 -67.284 0.325 0 0
09-06-2020 17:20 82.9 % 20.265 -70.359 1.187 0 0
09-06-2020 17:10 80.7 % 20.43 -70.297 0.943 0 0
09-06-2020 17:00 77.9 % 21.159 -70.54 1.034 0 0
09-06-2020 16:50 75.5 % 21.387 -71.868 0.771 0 0
09-06-2020 16:40 73.3 % 21.551 -72.367 1.089 0 0
09-06-2020 16:30 73.2 % 22.736 -71.061 1.103 0 0
09-06-2020 16:20 74.4 % 22.346 -69.657 2.096 0 0
09-06-2020 16:10 74.3 % 22.485 -75.726 0.358 0 0
09-06-2020 16:00 72.7 % 22.444 -75.607 2.245 0 0
09-06-2020 15:50 71.7 % 22.585 -72.968 1.97 0 0
09-06-2020 15:40 73.3 % 22.482 -72.424 1.956 0 0

I dati sono presentati in modo automatico a scopo informativo. In seguito a verifica i dati possono subire modifiche o essere invalidati e non riportati negli archivi definitivi.